Regional Weather Roundup
Issued by NWS

Home | Current Version | Previous Version | Text Only | Print | Product List | Glossary On
Versions: 1 2 3 4 5 6 7 8 9 10 11 12 13 14 15 16 17 18 19 20 21 22 23 24 25 26 27 28 29 30 31 32 33 34 35 36 37 38 39 40 41 42 43 44 45 46 47 48 49 50
689
ASUS43 KLMK 232202
RWRKY
KENTUCKY REGIONAL WEATHER ROUNDUP
NATIONAL WEATHER SERVICE LOUISVILLE KY
600 PM EDT FRI JUN 23 2017

NOTE "FAIR" INDICATES FEW OR NO CLOUDS BELOW 12,000 FEET
WITH NO SIGNIFICANT WEATHER AND/OR OBSTRUCTIONS TO VISIBILITY.

KYZ001>023-026-027-061>063-070>075-232300-
WESTERN AND SOUTH CENTRAL KENTUCKY

CITY           SKY/WX    TMP DP  RH WIND       PRES   REMARKS
PADUCAH        PTSUNNY   85  74  69 W10       29.73R HX  92
HENDERSON      CLOUDY    80  74  81 MISG      29.71R
OWENSBORO      PTSUNNY   79  74  84 NW16      29.69R
HOPKINSVILLE   PTSUNNY   80  74  80 W15       29.73R
BOWLING GREEN  LGT RAIN  73  70  90 W9        29.67R FOG
GLASGOW        NOT AVBL
$$

KYZ024-025-028>034-038-045-046-053-232300-
NORTH CENTRAL KENTUCKY

CITY           SKY/WX    TMP DP  RH WIND       PRES   REMARKS
LOUISVILLE/SDF RAIN      72  69  90 CALM      29.66S FOG
LOUISVILLE/LOU RAIN      73  71  93 CALM      29.67F FOG
FORT KNOX      LGT RAIN  70  69  98 N7        29.64R
$$

KYZ035>037-039>044-047>052-055>060-089>105-232300-
NORTHEAST KENTUCKY

CITY           SKY/WX    TMP DP  RH WIND       PRES   REMARKS
LEXINGTON      HVY RAIN  74  71  91 SW8       29.70F FOG
COVINGTON      LGT RAIN  70  69  97 CALM      29.71S FOG
FRANKFORT      HVY RAIN  75  71  87 CALM      29.67F FOG
$$

KYZ054-064>069-076>088-106>120-232300-
SOUTHEAST KENTUCKY

CITY           SKY/WX    TMP DP  RH WIND       PRES   REMARKS
JACKSON        LGT RAIN  73  71  93 CALM      29.76F
LONDON         CLOUDY    75  70  84 SE5       29.72F
SOMERSET       RAIN      72  72 100 S5        29.70F
MIDDLESBORO    CLOUDY    82  67  60 S7        29.77F
MONTICELLO     LGT RAIN  76  72  87 VRB7G20   29.71F
$$





USA.gov is the U.S. government's official web portal to all federal, state and local government web resources and services.